Total_Precipitation_Accumulation
1.74 1.86 1.81 2.00 2.02 2.12 2.32 2.64 2.70 2.83 2.85 2.77 2.43 2.12 2.02 1.88 1.72 1.83 2.04 1.96 1.85 2.03 2.47 2.86 2.76 2.45 2.09 1.92 1.73 1.58 1.46 1.41 1.26 0.98 0.90 0.97 0.95 0.89 0.81 0.75 0.69 0.62 0.53
2.28 2.46 2.46 2.48 2.29 2.29 2.54 2.80 2.94 3.37 3.28 3.15 2.66 2.36 2.13 2.05 1.84 1.76 2.00 2.18 1.84 1.77 2.10 2.71 2.97 2.70 2.38 2.18 2.01 1.80 1.64 1.53 1.42 1.07 0.86 0.89 0.94 0.93 0.87 0.81 0.70 0.60 0.50
2.61 2.76 2.72 2.63 2.61 2.61 2.78 2.96 3.13 3.24 3.04 2.93 2.77 2.56 2.31 2.11 1.83 1.78 1.86 2.08 1.95 1.80 1.94 2.22 2.59 2.68 2.60 2.48 2.38 2.14 1.78 1.57 1.37 1.13 0.87 0.80 0.82 0.85 0.84 0.84 0.75 0.60 0.44
2.79 3.05 2.87 2.75 3.04 2.91 3.03 3.39 3.41 3.38 3.29 3.10 2.95 2.70 2.45 2.24 1.80 1.70 1.68 1.90 2.20 1.93 1.91 2.09 2.23 2.31 2.58 2.73 2.72 2.59 2.25 1.82 1.44 1.20 1.00 0.94 0.93 0.90 0.86 0.80 0.75 0.58 0.41
2.69 2.93 2.81 2.85 2.95 3.21 3.27 3.06 3.53 3.54 3.42 3.26 2.75 2.53 2.23 2.02 1.82 1.60 1.62 1.65 1.92 1.81 1.78 1.84 1.95 2.06 2.50 3.05 3.21 3.14 2.94 2.52 1.98 1.65 1.59 1.53 1.48 1.29 1.07 0.90 0.76 0.61 0.45
2.57 2.93 2.75 2.70 2.82 3.13 3.13 3.12 3.44 3.42 3.17 3.18 2.59 2.25 2.09 1.74 1.70 1.68 1.48 1.51 1.58 1.38 1.46 1.69 2.10 1.80 1.94 2.31 2.79 3.19 3.34 3.27 2.86 2.73 2.79 2.55 2.33 1.91 1.40 1.09 0.87 0.74 0.60
2.44 2.81 2.59 2.83 2.76 2.85 2.87 2.90 3.15 3.23 2.93 3.00 2.93 2.46 1.90 1.53 1.50 1.47 1.47 1.49 1.35 1.41 1.74 2.03 2.17 2.15 1.95 1.75 1.88 2.41 3.11 3.51 3.30 3.06 3.19 3.24 3.15 2.56 1.79 1.37 1.06 0.85 0.71
2.27 2.42 2.57 2.46 2.52 2.66 2.68 2.70 2.93 2.89 2.55 2.67 2.88 2.88 2.26 1.91 1.49 1.13 1.39 1.45 1.37 1.56 1.66 1.72 2.01 2.29 2.24 2.35 1.84 1.69 2.30 3.03 3.34 3.18 3.05 3.25 3.30 2.71 2.04 1.76 1.40 1.07 0.91
2.08 2.15 2.29 2.30 2.32 2.22 2.42 2.59 2.52 2.51 2.39 2.33 2.51 2.83 2.53 2.11 1.71 1.25 1.08 1.15 1.36 1.53 1.54 1.67 1.67 1.83 1.93 2.32 2.29 1.88 1.74 2.00 2.68 3.32 3.35 3.21 3.08 2.62 2.21 2.02 1.80 1.43 1.20
1.82 1.85 1.90 1.92 1.97 1.99 2.25 2.07 2.06 2.27 2.36 2.23 2.29 2.28 2.26 2.30 2.18 1.60 1.18 1.09 1.29 1.39 1.37 1.32 1.42 1.63 1.72 1.94 2.09 1.91 1.68 1.56 1.89 2.60 3.12 3.19 2.95 2.47 2.19 2.19 2.33 2.09 1.60
1.74 1.65 1.71 1.71 1.70 1.72 1.84 1.86 2.11 2.12 2.15 2.14 2.11 2.08 2.16 2.18 2.05 1.88 1.53 1.37 1.31 1.15 1.15 1.22 1.35 1.55 1.70 1.83 1.99 1.76 1.75 1.57 1.61 1.80 2.23 2.61 2.72 2.60 2.32 2.32 2.68 2.77 2.39
1.56 1.55 1.57 1.59 1.55 1.59 1.73 1.78 1.84 1.83 1.88 1.94 1.88 1.85 1.99 1.94 1.88 1.96 1.69 1.55 1.49 1.22 1.19 1.23 1.27 1.41 1.48 1.57 1.45 1.52 1.52 1.36 1.33 1.34 1.39 1.68 2.01 2.19 2.22 2.35 2.68 2.92 2.89
1.32 1.32 1.40 1.44 1.42 1.47 1.60 1.65 1.60 1.64 1.72 1.76 1.71 1.74 1.82 1.77 1.75 1.88 1.96 1.78 1.63 1.35 1.34 1.31 1.23 1.35 1.28 1.47 1.43 1.26 1.09 1.02 0.93 0.92 0.96 1.09 1.28 1.48 1.67 1.93 2.32 2.65 2.80
1.21 1.25 1.29 1.30 1.32 1.37 1.39 1.59 1.59 1.60 1.67 1.69 1.63 1.86 1.80 1.61 1.64 1.76 1.97 2.16 2.04 1.70 1.62 1.46 1.27 1.18 1.23 1.30 1.23 1.02 0.84 0.76 0.70 0.69 0.67 0.74 0.88 1.00 1.13 1.33 1.61 1.85 2.05
1.43 1.43 1.39 1.39 1.43 1.50 1.58 1.72 1.75 1.71 1.78 1.78 1.83 1.94 1.80 1.62 1.59 1.64 1.93 2.19 2.36 2.11 1.82 1.58 1.42 1.13 1.13 1.09 1.06 0.95 0.95 0.77 0.58 0.55 0.54 0.51 0.56 0.66 0.76 0.86 0.99 1.15 1.27
1.62 1.59 1.55 1.50 1.47 1.53 1.68 1.80 1.82 1.79 1.84 1.89 1.91 1.99 1.99 1.85 1.84 1.82 1.95 2.15 2.32 2.37 2.01 1.64 1.57 1.30 1.19 1.02 1.00 0.91 0.84 0.79 0.59 0.49 0.48 0.46 0.46 0.50 0.54 0.62 0.69 0.76 0.87
1.56 1.49 1.42 1.39 1.38 1.40 1.45 1.52 1.50 1.52 1.54 1.62 1.62 1.73 1.86 1.99 1.98 1.94 1.98 2.05 2.21 2.39 2.11 1.93 1.99 1.83 1.59 1.33 1.15 1.01 0.85 0.82 0.70 0.57 0.47 0.48 0.48 0.49 0.51 0.55 0.58 0.63 0.70
1.29 1.19 1.21 1.21 1.15 1.12 1.15 1.15 1.15 1.25 1.36 1.45 1.54 1.61 1.56 1.63 1.70 1.75 1.84 1.96 2.11 2.33 2.23 2.21 2.34 2.30 2.02 1.64 1.47 1.31 1.01 0.87 0.79 0.72 0.56 0.45 0.46 0.47 0.49 0.53 0.56 0.59 0.63
0.96 0.93 0.99 1.02 0.99 0.98 0.96 0.97 1.02 1.13 1.24 1.30 1.37 1.36 1.31 1.35 1.39 1.52 1.57 1.70 1.88 2.14 2.25 2.34 2.48 2.46 2.20 1.94 1.81 1.51 1.28 1.19 0.94 0.85 0.72 0.54 0.45 0.46 0.50 0.51 0.56 0.62 0.62
0.84 0.87 0.91 0.93 0.95 1.00 1.05 1.14 1.19 1.22 1.24 1.19 1.12 1.08 1.07 1.14 1.22 1.36 1.45 1.49 1.62 1.85 2.02 2.18 2.39 2.43 2.31 2.21 2.13 1.80 1.58 1.49 1.29 1.05 0.95 0.73 0.60 0.52 0.51 0.52 0.55 0.62 0.71
0.77 0.85 0.95 0.99 1.04 1.06 0.98 1.09 1.21 1.19 1.20 1.13 1.03 0.90 0.83 0.89 0.96 1.07 1.08 1.27 1.45 1.65 1.77 1.94 2.19 2.43 2.29 2.22 2.09 1.97 1.80 1.73 1.61 1.38 1.30 1.01 0.82 0.68 0.56 0.53 0.57 0.65 0.80
0.89 0.92 0.90 0.93 0.92 0.77 0.81 0.94 1.05 1.09 1.11 1.11 1.03 0.90 0.78 0.77 0.80 0.88 0.93 1.02 1.18 1.38 1.57 1.84 2.04 2.22 2.11 2.05 2.16 2.19 2.13 1.93 1.84 1.69 1.77 1.64 1.39 1.23 0.95 0.68 0.60 0.62 0.76
0.93 1.00 0.96 0.93 0.92 0.88 0.88 0.85 0.84 0.92 1.01 1.00 1.02 1.01 0.83 0.70 0.81 0.83 0.90 0.90 0.98 1.09 1.23 1.51 1.73 1.86 2.01 2.01 2.22 2.33 2.45 2.34 2.19 2.06 2.20 2.21 2.04 1.86 1.26 1.03 0.95 0.77 0.73
1.00 1.02 1.01 0.97 1.04 1.01 0.91 0.78 0.79 0.81 0.92 0.95 0.95 0.94 0.96 0.96 0.90 0.87 0.93 0.94 0.85 0.86 0.94 0.99 1.19 1.50 2.00 2.27 2.27 2.33 2.56 2.56 2.39 2.28 2.36 2.49 2.28 2.19 1.73 1.29 1.04 0.77 0.67
1.02 0.99 0.99 0.94 0.95 0.99 0.89 0.74 0.72 0.77 0.91 0.97 0.96 0.92 0.87 0.89 0.89 0.80 0.85 0.89 0.86 0.83 0.84 0.94 1.06 1.28 1.53 1.86 2.04 2.12 2.25 2.39 2.48 2.44 2.41 2.52 2.43 2.32 2.30 1.98 1.39 0.99 0.71
1.14 1.09 1.04 0.99 0.95 0.97 0.83 0.63 0.63 0.71 0.84 0.90 0.96 0.89 0.75 0.67 0.67 0.67 0.79 0.87 0.83 0.80 0.86 0.90 0.93 1.03 1.18 1.36 1.44 1.43 1.55 1.71 1.90 2.07 2.01 2.20 2.44 2.50 2.68 2.63 2.11 1.51 1.12